{"data":{"norad_id":64382,"epoch":"2026-05-24T21:53:02.290848Z","epoch_age_seconds":75902,"freshness":"FRESH","line1":"1 64382U 25127N   26144.91183207  .00203539  00000+0  15483-2 0  9992","line2":"2 64382  43.0018 344.7782 0002303 266.6308  93.4296 15.70883567 55491","mean_motion":15.70883567,"eccentricity":0.0002303,"inclination_deg":43.0018,"raan_deg":344.7782,"arg_perigee_deg":266.6308,"mean_anomaly_deg":93.4296,"bstar":0.0015483,"rev_number":5549,"period_min":91.668156077923,"perigee_km":354.81958471993,"apogee_km":357.92149889368,"semimajor_km":6734.5075418068,"source":"CELESTRAK","updated_at":"2026-05-25T13:38:20.412571Z"}}